Retour au catalogue

STARLINK-3780

ActifCommunicationsVLEO
NORAD 52278·PAYLOAD·🇺🇸 United States

Lancé Apr 21, 2022 depuis Cape Canaveral Space Force Station

Loading…

Prochains Passages (prochaines 24 heures)

TLE

FraisSource: CelesTrak SupGP

Époque: Sep 15, 2026, 02:50 UTC

1 52278C 22041T   26258.11854167  .00050881  00000+0  14555-2 0  2580
2 52278  53.1588 332.5614 0001197  78.2629 278.4009 15.35378304    12

Suivez STARLINK-3780 en temps réel avec AllMySat

Download on the App Store